Hourly Weather Alloza

Today, 2 March, Tuesday

Time Temperature Precipitation Wind Pressure Humidity
00:00 +6°C° 0 mm 2 mps 708 mmHg 90%
01:00 +6°C° 0 mm 2 mps 707 mmHg 90%
02:00 +6°C° 0 mm 2 mps 707 mmHg 90%
03:00 +6°C° 0 mm 2 mps 707 mmHg 91%
04:00 +6°C° 0 mm 2 mps 707 mmHg 91%
05:00 +5°C° 0 mm 2 mps 708 mmHg 92%
06:00 +6°C° 0 mm 1 mps 708 mmHg 95%
07:00 +6°C° 0 mm 2 mps 708 mmHg 89%
08:00 +8°C° 0 mm 2 mps 709 mmHg 83%
09:00 +9°C° 0 mm 2 mps 709 mmHg 77%
10:00 +10°C° 0 mm 3 mps 709 mmHg 70%
11:00 +12°C° 0 mm 4 mps 710 mmHg 64%
12:00 +13°C° 0 mm 4 mps 710 mmHg 60%
13:00 +13°C° 0 mm 4 mps 710 mmHg 59%
14:00 +13°C° 0 mm 4 mps 710 mmHg 59%
15:00 +14°C° 0 mm 4 mps 710 mmHg 58%
16:00 +12°C° 0 mm 4 mps 710 mmHg 64%
17:00 +11°C° 0 mm 3 mps 710 mmHg 70%
18:00 +10°C° 0 mm 3 mps 710 mmHg 77%
19:00 +9°C° 0 mm 2 mps 710 mmHg 80%
20:00 +10°C° 0 mm 1 mps 710 mmHg 83%
21:00 +9°C° 0 mm 1 mps 711 mmHg 87%
22:00 +9°C° 0 mm 1 mps 711 mmHg 87%
23:00 +9°C° 0 mm 1 mps 711 mmHg 87%

Tomorrow, 3 March, Wednesday

Time Temperature Precipitation Wind Pressure Humidity
00:00 +9°C° 0 mm 1 mps 711 mmHg 87%
01:00 +8°C° 0 mm 1 mps 711 mmHg 87%
02:00 +8°C° 0 mm 1 mps 710 mmHg 87%
03:00 +8°C° 0 mm 1 mps 710 mmHg 88%
04:00 +7°C° 0 mm 1 mps 710 mmHg 88%
05:00 +6°C° 0 mm 0 mps 710 mmHg 89%
06:00 +5°C° 0 mm 0 mps 710 mmHg 89%
07:00 +7°C° 0 mm 0 mps 710 mmHg 83%
08:00 +9°C° 0 mm 0 mps 711 mmHg 77%
09:00 +10°C° 0 mm 0 mps 711 mmHg 71%
10:00 +13°C° 0 mm 1 mps 711 mmHg 65%
11:00 +14°C° 0 mm 2 mps 711 mmHg 58%
12:00 +15°C° 0 mm 2 mps 711 mmHg 52%
13:00 +16°C° 0 mm 3 mps 711 mmHg 51%
14:00 +16°C° 0 mm 3 mps 710 mmHg 49%
15:00 +17°C° 0 mm 3 mps 710 mmHg 47%
16:00 +14°C° 0 mm 3 mps 709 mmHg 54%
17:00 +14°C° 0 mm 2 mps 709 mmHg 61%
18:00 +12°C° 0 mm 2 mps 709 mmHg 68%
19:00 +12°C° 0 mm 1 mps 709 mmHg 73%
20:00 +11°C° 0 mm 1 mps 709 mmHg 78%
21:00 +9°C° 0 mm 0 mps 709 mmHg 83%
22:00 +8°C° 0 mm 0 mps 709 mmHg 84%
23:00 +8°C° 0 mm 0 mps 708 mmHg 86%

Day after tomorrow, 4 March, Thursday

Time Temperature Precipitation Wind Pressure Humidity
00:00 +7°C° 0 mm 0 mps 708 mmHg 87%
01:00 +7°C° 0 mm 0 mps 708 mmHg 88%
02:00 +6°C° 0 mm 0 mps 707 mmHg 89%
03:00 +6°C° 0 mm 0 mps 707 mmHg 89%
04:00 +6°C° 0 mm 0 mps 706 mmHg 90%
05:00 +5°C° 0 mm 0 mps 706 mmHg 90%
06:00 +5°C° 0 mm 0 mps 705 mmHg 90%
07:00 +6°C° 0 mm 0 mps 706 mmHg 85%
08:00 +8°C° 0 mm 0 mps 706 mmHg 79%
09:00 +9°C° 0 mm 0 mps 706 mmHg 74%
10:00 +12°C° 0 mm 1 mps 706 mmHg 67%
11:00 +13°C° 0 mm 2 mps 705 mmHg 61%
12:00 +14°C° 0 mm 2 mps 705 mmHg 54%
13:00 +15°C° 0 mm 2 mps 705 mmHg 53%
14:00 +14°C° 0 mm 3 mps 704 mmHg 51%
15:00 +14°C° 0 mm 3 mps 703 mmHg 50%
16:00 +14°C° 0 mm 2 mps 703 mmHg 56%
17:00 +13°C° 0 mm 2 mps 703 mmHg 63%
18:00 +10°C° 0 mm 2 mps 702 mmHg 69%
19:00 +11°C° 0 mm 1 mps 702 mmHg 74%
20:00 +10°C° 0 mm 1 mps 703 mmHg 79%
21:00 +9°C° 0 mm 1 mps 703 mmHg 84%
22:00 +7°C° 0 mm 0 mps 702 mmHg 86%
23:00 +7°C° 0 mm 0 mps 702 mmHg 88%

5 March, Friday

Time Temperature Precipitation Wind Pressure Humidity
00:00 +6°C° 0 mm 0 mps 702 mmHg 90%
01:00 +6°C° 0 mm 0 mps 702 mmHg 90%
02:00 +6°C° 0 mm 0 mps 701 mmHg 91%
03:00 +5°C° 0 mm 0 mps 701 mmHg 92%
04:00 +5°C° 0 mm 0 mps 701 mmHg 92%
05:00 +4°C° 0 mm 0 mps 701 mmHg 93%
06:00 +4°C° 0 mm 0 mps 701 mmHg 94%
07:00 +6°C° 0 mm 0 mps 701 mmHg 87%
08:00 +7°C° 0 mm 0 mps 701 mmHg 80%
09:00 +10°C° 0 mm 1 mps 702 mmHg 74%
10:00 +11°C° 0 mm 1 mps 702 mmHg 67%
11:00 +13°C° 0 mm 2 mps 702 mmHg 60%
12:00 +13°C° 0 mm 3 mps 702 mmHg 53%
13:00 +13°C° 0 mm 3 mps 701 mmHg 52%
14:00 +14°C° 0 mm 3 mps 701 mmHg 52%
15:00 +14°C° 0 mm 3 mps 701 mmHg 51%
16:00 +14°C° 0 mm 2 mps 701 mmHg 56%
17:00 +12°C° 0 mm 2 mps 701 mmHg 62%
18:00 +11°C° 0 mm 1 mps 701 mmHg 67%
19:00 +11°C° 0 mm 1 mps 702 mmHg 69%
20:00 +10°C° 0 mm 1 mps 702 mmHg 72%
21:00 +9°C° 0 mm 1 mps 703 mmHg 74%
22:00 +9°C° 0 mm 1 mps 703 mmHg 78%
23:00 +8°C° 0 mm 2 mps 703 mmHg 81%

6 March, Saturday

Time Temperature Precipitation Wind Pressure Humidity
00:00 +7°C° 0 mm 2 mps 703 mmHg 85%
01:00 +7°C° 0 mm 2 mps 703 mmHg 86%
02:00 +6°C° 0 mm 2 mps 703 mmHg 88%
03:00 +6°C° 0 mm 2 mps 703 mmHg 89%
04:00 +5°C° 0 mm 2 mps 703 mmHg 89%
05:00 +6°C° 0 mm 1 mps 703 mmHg 89%
06:00 +5°C° 0 mm 1 mps 703 mmHg 88%
07:00 +6°C° 0 mm 2 mps 704 mmHg 82%
08:00 +7°C° 0 mm 2 mps 704 mmHg 76%
09:00 +8°C° 0 mm 2 mps 705 mmHg 70%
10:00 +9°C° 0 mm 2 mps 705 mmHg 66%
11:00 +12°C° 0 mm 2 mps 705 mmHg 61%
12:00 +12°C° 0 mm 3 mps 705 mmHg 56%
13:00 +12°C° 0 mm 3 mps 705 mmHg 55%
14:00 +13°C° 0 mm 3 mps 704 mmHg 54%
15:00 +13°C° 0 mm 3 mps 704 mmHg 52%
16:00 +13°C° 0 mm 2 mps 704 mmHg 58%
17:00 +12°C° 0 mm 2 mps 704 mmHg 63%
18:00 +10°C° 0 mm 2 mps 704 mmHg 69%
19:00 +10°C° 0 mm 1 mps 704 mmHg 74%
20:00 +9°C° 0 mm 1 mps 705 mmHg 78%
21:00 +7°C° 0 mm 0 mps 705 mmHg 83%
22:00 +7°C° 0 mm 0 mps 705 mmHg 83%
23:00 +7°C° 0 mm 0 mps 705 mmHg 84%

7 March, Sunday

Time Temperature Precipitation Wind Pressure Humidity
00:00 +7°C° 0 mm 0 mps 705 mmHg 84%
01:00 +7°C° 0 mm 0 mps 705 mmHg 84%
02:00 +6°C° 0 mm 0 mps 705 mmHg 85%
03:00 +6°C° 0 mm 0 mps 704 mmHg 85%
04:00 +6°C° 0 mm 0 mps 704 mmHg 86%
05:00 +6°C° 0 mm 0 mps 704 mmHg 87%
06:00 +5°C° 0 mm 0 mps 704 mmHg 87%
07:00 +7°C° 0 mm 0 mps 704 mmHg 81%
08:00 +8°C° 0 mm 0 mps 704 mmHg 75%
09:00 +9°C° 0 mm 0 mps 704 mmHg 68%
10:00 +11°C° 0 mm 1 mps 704 mmHg 64%
11:00 +13°C° 0 mm 1 mps 704 mmHg 59%
12:00 +14°C° 0 mm 2 mps 704 mmHg 54%
13:00 +14°C° 0.2 mm 2 mps 703 mmHg 53%
14:00 +13°C° 0.2 mm 3 mps 703 mmHg 52%
15:00 +14°C° 0.2 mm 3 mps 702 mmHg 51%
16:00 +13°C° 0.2 mm 3 mps 702 mmHg 57%
17:00 +13°C° 0.2 mm 2 mps 701 mmHg 64%
18:00 +12°C° 0.2 mm 2 mps 701 mmHg 70%
19:00 +10°C° 0.2 mm 2 mps 701 mmHg 74%
20:00 +9°C° 0.2 mm 2 mps 701 mmHg 78%
21:00 +10°C° 0.2 mm 1 mps 701 mmHg 82%
22:00 +8°C° 0.1 mm 2 mps 701 mmHg 82%
23:00 +8°C° 0.1 mm 2 mps 701 mmHg 82%
Show more